Location: Barrio Pajares
(40.5500°N, 4.1667°W)
Time: 13:21:22
(UTC+00:00)

Cosmos 2100 Rocket - Visible Passes

Search period start: 12 July 2024 00:00
Search period end: 22 July 2024 00:00
Orbit: 955 x 1000 km, 82.9° (Epoch: 11 July)

Date Brightness Start Highest point End Pass type
(mag) Time Alt. Az. Time Alt. Az. Time Alt. Az.
12 Jul 5.3 00:26:12 24° ESE 00:27:21 26° E 00:32:17 10° NNE visible
12 Jul 4.5 02:10:55 38° WSW 02:12:26 45° WNW 02:18:20 10° N visible
13 Jul 4.4 00:52:11 45° ESE 00:53:06 48° E 00:58:59 10° NNE visible
13 Jul 5.3 02:36:54 21° W 02:38:46 25° WNW 02:43:44 10° NNW visible
13 Jul 6.1 23:33:27 11° E 23:34:37 12° ENE 23:36:32 10° ENE visible
14 Jul 3.8 01:18:09 68° S 01:19:01 88° E 01:25:14 10° N visible
14 Jul 5.9 03:02:52 11° W 03:05:19 13° WNW 03:08:10 10° NW visible
14 Jul 5.4 23:59:24 22° E 00:00:09 23° E 00:04:48 10° NE visible
15 Jul 4.3 01:44:07 46° WSW 01:45:07 51° WNW 01:51:08 10° N visible
16 Jul 4.6 00:25:21 41° ESE 00:25:51 42° E 00:31:37 10° NNE visible
16 Jul 5.1 02:10:04 26° W 02:11:25 28° WNW 02:16:38 10° NNW visible
17 Jul 3.8 00:51:18 74° SE 00:51:44 79° E 00:57:56 10° N visible
17 Jul 5.8 02:36:00 13° W 02:37:55 15° WNW 02:41:23 10° NNW visible
17 Jul 5.6 23:32:31 20° E 23:32:57 20° E 23:37:16 10° NE visible
18 Jul 4.1 01:17:13 55° WSW 01:17:48 57° W 01:23:54 10° N visible
18 Jul 4.7 23:58:26 37° E 23:58:38 37° E 00:04:14 10° NNE visible
19 Jul 5.0 01:43:08 30° W 01:44:03 31° WNW 01:49:31 10° NNW visible
20 Jul 3.9 00:24:20 70° ESE 00:24:28 70° E 00:30:38 10° NNE visible
20 Jul 5.7 02:09:03 16° W 02:10:31 17° WNW 02:14:29 10° NNW visible
20 Jul 5.7 23:05:32 18° E 23:05:46 18° E 23:09:41 10° NE visible
21 Jul 4.0 00:50:14 64° W 00:50:30 65° W 00:56:41 10° N visible
21 Jul 4.9 23:31:25 33° E 23:31:25 33° E 23:36:50 10° NNE visible
